This is the latest recevied weather packets stored in our database for station/object NR0A-4. If no packets are shown the sender has not sent any weather packets the latest 10 day(s).
| Time | Temp. | Humidity | Pressure | Rain* | Wind** | Luminosity | Snow |
|---|---|---|---|---|---|---|---|
| 1788129015 | 32.22° C | 57% | 1008.1 hPa | 0 mm | - | 436 W/m² | - |
| 1788128704 | 32.22° C | 58% | 1008 hPa | 0 mm | - | 438 W/m² | - |
| 1788128404 | 32.22° C | 56% | 1008 hPa | 0 mm | - | 457 W/m² | - |
| 1788128104 | 32.22° C | 57% | 1007.8 hPa | 0 mm | - | 397 W/m² | - |
| 1788127804 | 32.22° C | 56% | 1007.8 hPa | 0 mm | - | 466 W/m² | - |
| 1788127504 | 32.22° C | 57% | 1007.6 hPa | 0 mm | - | 473 W/m² | - |
| 1788127204 | 32.22° C | 58% | 1007.7 hPa | 0 mm | - | 475 W/m² | - |
| 1788126904 | 32.22° C | 59% | 1007.6 hPa | 0 mm | - | 413 W/m² | - |
| 1788126604 | 32.22° C | 59% | 1007.7 hPa | 0 mm | - | 508 W/m² | - |
| 1788126304 | 32.22° C | 58% | 1007.7 hPa | 0 mm | - | 526 W/m² | - |
| 1788126004 | 32.22° C | 59% | 1007.7 hPa | 0 mm | - | 529 W/m² | - |
| 1788125704 | 32.22° C | 58% | 1007.6 hPa | 0 mm | - | 541 W/m² | - |
| 1788125404 | 32.22° C | 60% | 1007.6 hPa | 0 mm | - | 573 W/m² | - |
| 1788125104 | 32.22° C | 61% | 1007.7 hPa | 0 mm | - | 613 W/m² | - |
| 1788124804 | 32.78° C | 61% | 1007.7 hPa | 0 mm | - | 592 W/m² | - |
| 1788124504 | 32.22° C | 61% | 1007.8 hPa | 0 mm | - | 571 W/m² | - |
| 1788124204 | 32.22° C | 62% | 1007.9 hPa | 0 mm | - | 698 W/m² | - |
| 1788123904 | 32.78° C | 58% | 1007.8 hPa | 0 mm | - | 355 W/m² | - |
| 1788123605 | 32.78° C | 59% | 1007.9 hPa | 0 mm | - | 301 W/m² | - |
| 1788123304 | 33.33° C | 56% | 1007.9 hPa | 0 mm | - | 281 W/m² | - |
| 1788123004 | 33.33° C | 57% | 1007.9 hPa | 0 mm | - | 664 W/m² | - |
| 1788122704 | 33.33° C | 59% | 1007.9 hPa | 0 mm | - | 650 W/m² | - |
| 1788122404 | 33.33° C | 57% | 1007.8 hPa | 0 mm | - | 654 W/m² | - |
| 1788122104 | 32.78° C | 60% | 1007.8 hPa | 0 mm | - | 689 W/m² | - |
| 1788121804 | 32.78° C | 60% | 1007.9 hPa | 0 mm | - | 745 W/m² | - |
* Rain latest hour (hover to see other rain measurements)
** Current wind speed in m/s (hover to see current wind gust speed)